Yatton Keynell, United Kingdom

4:24 PM BST on April 19, 2019 (GMT +0100)
Yatton Keynell

Weather History for 03740 - July, 2000

Change the Weather History Date:

Saturday, July 1, 2000

  Actual Average Record
Temperature  
Mean Temperature 62 °F -  
Max Temperature 69 °F 69 °F - ()
Min Temperature 55 °F 53 °F - ()
Degree Days  
Heating Degree Days 3    
Growing Degree Days 12 (Base 50)    
Moisture  
Dew Point 55 °F    
Average Humidity 82    
Maximum Humidity 100    
Minimum Humidity 56    
Precipitation  
Precipitation 0.00 in 0.07 in - ()
Sea Level Pressure  
Sea Level Pressure 29.79 in    
Wind  
Wind Speed 5 mph ()    
Max Wind Speed 12 mph    
Max Gust Speed -    
Visibility 4.8 miles    
Events Rain    
T = Trace of Precipitation, MM = Missing Value Source: Averaged Metar Reports

Daily Weather History Graph

Daily Weather History Graph

Search for Another Location

Airport or City:

Astronomy

Jul. 01, 2000 Rise Set
Actual Time 4:55 AM BST 9:28 PM BST
Civil Twilight 4:08 AM BST 10:15 PM BST
Nautical Twilight 2:55 AM BST 11:27 PM BST
Astronomical Twilight 1:44 AM BST 12:39 AM BST
Moon 4:35 AM BST (7/1) 9:12 PM BST (7/1)
Length of Visible Light 18h 07m
Length of Day
16h 32m
Waning Crescent, 0% of the Moon is Illuminated
Jul 1
Waning Crescent
Jul 1
New
Jul 8
First Quarter
Jul 16
Full
Jul 24
Last Quarter

Hourly Weather History & Observations

Time (BST) Temp. Dew Point Humidity Pressure Visibility Wind Dir Wind Speed Gust Speed Precip Events Conditions
12:50 AM 57.2 °F 53.6 °F 88% 29.83 in 2.5 mi South 3.5 mph - N/A   Haze
1:50 AM 55.4 °F 53.6 °F 94% 29.83 in - South 4.6 mph - N/A   Haze
2:50 AM 55.4 °F 53.6 °F 94% 29.80 in 1.6 mi South 5.8 mph - N/A Rain Light Rain
3:50 AM 55.4 °F 55.4 °F 100% 29.80 in 1.1 mi South 3.5 mph - N/A Rain Light Rain
4:50 AM 55.4 °F 53.6 °F 94% 29.80 in - Calm Calm - N/A   Mostly Cloudy
5:50 AM 55.4 °F 53.6 °F 94% 29.77 in 3.1 mi SSE 4.6 mph - N/A   Mostly Cloudy
6:50 AM 55.4 °F 53.6 °F 94% 29.77 in 3.1 mi South 4.6 mph - N/A Rain Light Rain
7:50 AM 55.4 °F 55.4 °F 100% 29.77 in 2.5 mi SSE 5.8 mph - N/A Rain Light Rain
8:50 AM 59.0 °F 55.4 °F 88% 29.77 in 3.7 mi SSE 5.8 mph - N/A Rain Light Rain
9:50 AM 59.0 °F 55.4 °F 88% 29.77 in 5.0 mi SE 5.8 mph - N/A   Haze
10:50 AM 60.8 °F 57.2 °F 88% 29.77 in 5.0 mi SSE 6.9 mph - N/A Rain Light Rain
11:50 AM 60.8 °F 57.2 °F 88% 29.77 in 5.6 mi SSE 6.9 mph - N/A   Haze
12:50 PM 60.8 °F 57.2 °F 88% 29.77 in 5.0 mi South 10.4 mph - N/A Rain Light Rain Showers
1:50 PM 62.6 °F 57.2 °F 82% 29.77 in 6.2 mi South 5.8 mph - N/A   Mostly Cloudy
2:50 PM 66.2 °F 55.4 °F 68% 29.77 in 6.2 mi SSW 8.1 mph - N/A   Mostly Cloudy
3:50 PM 68.0 °F 55.4 °F 64% 29.77 in 6.2 mi South 8.1 mph - N/A   Mostly Cloudy
4:50 PM 69.8 °F 55.4 °F 60% 29.77 in 6.2 mi SSW 8.1 mph - N/A   Scattered Clouds
5:50 PM 66.2 °F 53.6 °F 64% 29.77 in 6.2 mi SW 10.4 mph - N/A   Scattered Clouds
6:50 PM 68.0 °F 51.8 °F 56% 29.77 in 6.2 mi SW 11.5 mph - N/A   Partly Cloudy
7:50 PM 66.2 °F 53.6 °F 64% 29.77 in 6.2 mi SW 9.2 mph - N/A   Partly Cloudy
8:50 PM 62.6 °F 53.6 °F 72% 29.80 in 6.2 mi SW 5.8 mph - N/A   Partly Cloudy
9:50 PM 60.8 °F 53.6 °F 77% 29.80 in 6.2 mi Calm Calm - N/A   Scattered Clouds
10:50 PM 59.0 °F 53.6 °F 82% 29.83 in 6.2 mi SW 5.8 mph - N/A   Scattered Clouds
11:50 PM 57.2 °F 53.6 °F 88% 29.83 in 6.2 mi SSW 6.9 mph - N/A   Partly Cloudy